�������l�o���
Date,Time,MP-1(��Sv/h),MP-2(��Sv/h),MP-3(��Sv/h),MP-4(��Sv/h),MP-5(��Sv/h),MP-6(��Sv/h),MP-7(��Sv/h),MP-8(��Sv/h),����,����(m/s),���J
2017/06/21,00:00,0.989,1.574,1.038,1.862,1.284,0.529,0.969,0.894,��쐼,0.8,��
2017/06/21,00:10,0.990,1.577,1.037,1.863,1.283,0.528,0.967,0.892,-,CALM,��
2017/06/21,00:20,0.992,1.574,1.040,1.859,1.281,0.529,0.966,0.894,�쐼,0.6,��
2017/06/21,00:30,0.993,1.575,1.039,1.864,1.282,0.529,0.968,0.893,�쐼,0.9,��
2017/06/21,00:40,0.990,1.572,1.039,1.865,1.281,0.529,0.966,0.895,-,CALM,��
2017/06/21,00:50,0.990,1.573,1.039,1.864,1.284,0.530,0.968,0.895,�k,0.9,��
2017/06/21,01:00,0.990,1.574,1.036,1.863,1.282,0.528,0.969,0.895,�k,2.0,��
2017/06/21,01:10,0.989,1.575,1.038,1.864,1.282,0.528,0.968,0.893,�k,2.0,��
2017/06/21,01:20,0.989,1.571,1.038,1.864,1.282,0.529,0.966,0.894,�k,1.7,��
2017/06/21,01:30,0.989,1.572,1.038,1.860,1.283,0.529,0.968,0.894,�k�k��,1.4,��
2017/06/21,01:40,0.990,1.573,1.038,1.861,1.284,0.527,0.968,0.893,�k,1.1,��
2017/06/21,01:50,0.990,1.572,1.038,1.863,1.280,0.528,0.966,0.893,�k,1.5,��
2017/06/21,02:00,0.988,1.573,1.035,1.867,1.284,0.527,0.966,0.895,�k,1.9,��
2017/06/21,02:10,0.989,1.575,1.036,1.860,1.278,0.526,0.966,0.892,�k��,1.5,��
2017/06/21,02:20,0.988,1.573,1.037,1.865,1.279,0.528,0.968,0.893,-,CALM,��
2017/06/21,02:30,0.988,1.573,1.035,1.862,1.281,0.525,0.967,0.895,-,CALM,��
2017/06/21,02:40,0.988,1.571,1.038,1.860,1.282,0.528,0.965,0.896,���쐼,0.6,��
2017/06/21,02:50,0.989,1.572,1.036,1.862,1.280,0.527,0.966,0.892,�k��,1.1,��
2017/06/21,03:00,0.988,1.570,1.039,1.862,1.280,0.527,0.966,0.893,�k�k��,2.3,��
2017/06/21,03:10,0.990,1.574,1.039,1.863,1.280,0.527,0.965,0.893,�k�k��,2.9,��
2017/06/21,03:20,0.990,1.572,1.040,1.863,1.279,0.526,0.964,0.893,�k��,1.9,��
2017/06/21,03:30,0.988,1.572,1.036,1.862,1.280,0.527,0.966,0.894,��,1.2,��
2017/06/21,03:40,0.989,1.573,1.038,1.861,1.282,0.525,0.968,0.894,�쐼,0.6,��
2017/06/21,03:50,0.990,1.572,1.040,1.862,1.280,0.527,0.965,0.894,-,CALM,��
2017/06/21,04:00,0.989,1.571,1.037,1.864,1.280,0.526,0.965,0.893,-,CALM,��
2017/06/21,04:10,0.989,1.572,1.038,1.861,1.279,0.528,0.966,0.892,-,CALM,��
2017/06/21,04:20,0.988,1.570,1.039,1.860,1.282,0.525,0.965,0.892,-,CALM,��
2017/06/21,04:30,0.986,1.573,1.038,1.862,1.279,0.526,0.964,0.892,-,CALM,��
2017/06/21,04:40,0.988,1.574,1.038,1.862,1.282,0.526,0.965,0.894,-,CALM,��
2017/06/21,04:50,0.987,1.573,1.038,1.861,1.280,0.527,0.965,0.891,-,CALM,��
2017/06/21,05:00,0.990,1.574,1.036,1.865,1.280,0.526,0.965,0.892,�쓌,0.6,��
2017/06/21,05:10,0.988,1.572,1.037,1.860,1.279,0.526,0.964,0.894,-,CALM,��
2017/06/21,05:20,0.988,1.572,1.037,1.862,1.280,0.525,0.965,0.893,���k��,0.6,��
2017/06/21,05:30,0.991,1.571,1.036,1.860,1.281,0.527,0.965,0.895,�쓌,0.6,��
2017/06/21,05:40,0.988,1.570,1.038,1.864,1.282,0.528,0.966,0.893,�쐼,0.6,��
2017/06/21,05:50,0.989,1.573,1.037,1.863,1.282,0.528,0.963,0.894,-,CALM,��
2017/06/21,06:00,0.991,1.573,1.037,1.862,1.281,0.528,0.963,0.894,-,CALM,��
2017/06/21,06:10,0.989,1.576,1.036,1.863,1.281,0.527,0.965,0.893,��쓌,1.4,��
2017/06/21,06:20,0.988,1.572,1.037,1.862,1.280,0.526,0.963,0.892,��쓌,0.6,��
2017/06/21,06:30,0.991,1.570,1.038,1.861,1.280,0.524,0.965,0.895,�쓌,1.4,��
2017/06/21,06:40,0.988,1.573,1.037,1.859,1.282,0.525,0.965,0.893,��쓌,2.8,��
2017/06/21,06:50,0.989,1.574,1.039,1.863,1.282,0.526,0.965,0.892,��쓌,3.1,��
2017/06/21,07:00,0.988,1.573,1.036,1.860,1.280,0.526,0.965,0.893,��쓌,2.6,��
2017/06/21,07:10,0.989,1.572,1.038,1.859,1.280,0.526,0.963,0.894,��쓌,3.0,��
2017/06/21,07:20,0.990,1.572,1.036,1.863,1.280,0.527,0.964,0.895,��,3.0,��
2017/06/21,07:30,0.990,1.574,1.037,1.861,1.278,0.526,0.966,0.893,��,4.0,��
2017/06/21,07:40,0.988,1.576,1.038,1.861,1.278,0.527,0.964,0.894,��,4.5,��
2017/06/21,07:50,0.990,1.573,1.041,1.860,1.278,0.524,0.962,0.895,��,3.7,��
2017/06/21,08:00,0.990,1.573,1.038,1.862,1.282,0.526,0.963,0.894,��,4.9,��
2017/06/21,08:10,0.989,1.572,1.038,1.860,1.281,0.526,0.964,0.894,��,5.6,��
2017/06/21,08:20,0.989,1.574,1.038,1.863,1.279,0.525,0.965,0.891,��,5.3,�L
2017/06/21,08:30,0.989,1.571,1.035,1.863,1.280,0.526,0.965,0.894,��,5.9,�L
2017/06/21,08:40,0.987,1.567,1.038,1.860,1.278,0.523,0.964,0.892,��,6.6,�L
2017/06/21,08:50,0.988,1.569,1.038,1.861,1.276,0.524,0.962,0.891,��,7.0,�L
2017/06/21,09:00,0.985,1.565,1.036,1.861,1.272,0.525,0.963,0.890,��쐼,7.7,�L
2017/06/21,09:10,0.983,1.559,1.034,1.857,1.266,0.524,0.961,0.888,��쐼,7.9,�L
2017/06/21,09:20,0.981,1.556,1.034,1.853,1.265,0.523,0.960,0.890,��,7.5,�L
2017/06/21,09:30,0.978,1.553,1.032,1.855,1.264,0.523,0.962,0.889,��,6.9,�L
2017/06/21,09:40,0.982,1.553,1.031,1.854,1.264,0.523,0.960,0.889,��,6.5,�L
2017/06/21,09:50,0.977,1.552,1.031,1.850,1.260,0.522,0.958,0.887,��,6.9,�L
2017/06/21,10:00,0.977,1.551,1.029,1.851,1.262,0.523,0.960,0.887,��쐼,6.9,�L
2017/06/21,10:10,0.976,1.549,1.028,1.848,1.262,0.522,0.959,0.886,��쐼,7.0,�L
2017/06/21,10:20,0.974,1.546,1.025,1.846,1.256,0.522,0.958,0.886,��,8.3,�L
2017/06/21,10:30,0.971,1.539,1.027,1.841,1.252,0.520,0.957,0.884,��,7.4,�L
2017/06/21,10:40,0.966,1.533,1.023,1.836,1.246,0.521,0.955,0.884,��,7.7,�L
2017/06/21,10:50,0.963,1.525,1.014,1.828,1.239,0.519,0.953,0.883,��,7.9,�L
2017/06/21,11:00,0.959,1.521,1.012,1.826,1.240,0.521,0.952,0.881,��쓌,7.5,�L
2017/06/21,11:10,0.958,1.520,1.011,1.822,1.236,0.521,0.951,0.879,��쓌,8.8,�L
2017/06/21,11:20,0.956,1.518,1.013,1.823,1.236,0.522,0.951,0.882,��쓌,10.3,�L
2017/06/21,11:30,0.955,1.515,1.011,1.821,1.234,0.520,0.953,0.880,��쓌,11.1,�L
2017/06/21,11:40,0.953,1.515,1.006,1.814,1.232,0.524,0.951,0.878,��쓌,11.3,�L
2017/06/21,11:50,0.953,1.508,1.003,1.812,1.228,0.523,0.950,0.876,��,8.2,�L
2017/06/21,12:00,0.949,1.504,1.007,1.806,1.222,0.523,0.946,0.878,��쓌,11.3,�L
2017/06/21,12:10,0.948,1.504,1.004,1.801,1.224,0.522,0.948,0.878,��,12.0,�L
2017/06/21,12:20,0.950,1.500,1.004,1.800,1.223,0.520,0.946,0.877,��,11.8,�L
2017/06/21,12:30,0.948,1.500,1.004,1.800,1.223,0.520,0.946,0.878,��,10.2,�L
2017/06/21,12:40,0.949,1.505,1.001,1.801,1.225,0.522,0.948,0.879,��,9.0,�L
2017/06/21,12:50,0.951,1.508,1.002,1.800,1.227,0.520,0.950,0.879,��,10.2,�L
2017/06/21,13:00,0.952,1.509,1.007,1.802,1.229,0.521,0.949,0.878,��,9.6,�L
2017/06/21,13:10,0.953,1.510,1.006,1.803,1.226,0.519,0.948,0.879,��,9.3,�L
2017/06/21,13:20,0.953,1.512,1.007,1.806,1.230,0.520,0.948,0.879,��쓌,8.4,�L
2017/06/21,13:30,0.952,1.511,1.007,1.807,1.231,0.521,0.949,0.879,��쓌,10.0,�L
2017/06/21,13:40,0.952,1.510,1.008,1.804,1.229,0.518,0.947,0.878,��,10.8,�L
2017/06/21,13:50,0.954,1.508,1.006,1.805,1.226,0.520,0.948,0.877,��,9.1,�L
2017/06/21,14:00,0.950,1.508,1.007,1.803,1.225,0.520,0.947,0.878,��쓌,10.6,�L
2017/06/21,14:10,0.952,1.510,1.006,1.803,1.227,0.521,0.948,0.878,��쓌,11.8,�L
2017/06/21,14:20,0.950,1.511,1.004,1.804,1.223,0.518,0.947,0.878,��쓌,12.7,�L
2017/06/21,14:30,0.947,1.503,1.003,1.804,1.221,0.518,0.944,0.878,��쓌,13.8,�L
2017/06/21,14:40,0.941,1.496,1.000,1.795,1.212,0.517,0.943,0.874,��쓌,13.9,�L
2017/06/21,14:50,0.937,1.489,0.993,1.785,1.203,0.516,0.942,0.873,��,13.9,�L
2017/06/21,15:00,0.935,1.482,0.992,1.780,1.198,0.515,0.939,0.870,��쓌,15.5,�L
2017/06/21,15:10,0.934,1.481,0.990,1.774,1.197,0.516,0.938,0.870,��쓌,14.1,�L
2017/06/21,15:20,0.936,1.479,0.990,1.771,1.193,0.517,0.938,0.869,��,12.4,�L
2017/06/21,15:30,0.935,1.480,0.990,1.772,1.196,0.515,0.939,0.868,��쓌,10.9,�L
2017/06/21,15:40,0.934,1.477,0.987,1.767,1.190,0.515,0.938,0.868,��,9.6,�L
2017/06/21,15:50,0.934,1.470,0.987,1.766,1.188,0.513,0.934,0.868,��,9.1,�L
2017/06/21,16:00,0.931,1.470,0.985,1.761,1.184,0.514,0.935,0.866,��,9.7,�L
2017/06/21,16:10,0.926,1.468,0.985,1.761,1.184,0.514,0.932,0.864,��,10.2,�L
2017/06/21,16:20,0.922,1.465,0.980,1.752,1.177,0.515,0.929,0.864,��쓌,10.7,�L
2017/06/21,16:30,0.928,1.467,0.982,1.754,1.178,0.514,0.930,0.863,��쓌,11.4,�L
2017/06/21,16:40,0.931,1.470,0.981,1.754,1.175,0.514,0.930,0.863,��쓌,11.0,�L
2017/06/21,16:50,0.928,1.468,0.981,1.751,1.172,0.514,0.928,0.862,��쓌,12.4,�L
2017/06/21,17:00,0.928,1.468,0.981,1.752,1.170,0.514,0.930,0.863,��,12.4,�L
2017/06/21,17:10,0.923,1.460,0.977,1.745,1.166,0.511,0.929,0.859,��,10.3,�L
2017/06/21,17:20,0.922,1.460,0.974,1.743,1.164,0.511,0.926,0.860,��쓌,11.7,�L
2017/06/21,17:30,0.922,1.456,0.973,1.739,1.161,0.510,0.925,0.859,��,11.8,�L
2017/06/21,17:40,0.918,1.451,0.969,1.734,1.156,0.512,0.922,0.857,��쓌,11.0,�L
2017/06/21,17:50,0.923,1.455,0.971,1.737,1.155,0.511,0.925,0.859,��,9.0,�L
2017/06/21,18:00,0.922,1.452,0.969,1.735,1.151,0.510,0.925,0.861,��,8.3,�L
2017/06/21,18:10,0.921,1.451,0.968,1.734,1.148,0.512,0.924,0.860,��,10.3,�L
2017/06/21,18:20,0.923,1.455,0.971,1.735,1.152,0.512,0.925,0.860,��,11.4,�L
2017/06/21,18:30,0.929,1.460,0.974,1.745,1.151,0.515,0.927,0.861,��,12.1,�L
2017/06/21,18:40,0.933,1.466,0.978,1.752,1.159,0.513,0.929,0.864,��,10.6,�L
2017/06/21,18:50,0.932,1.469,0.979,1.755,1.159,0.516,0.931,0.863,��,10.2,�L
2017/06/21,19:00,0.935,1.471,0.980,1.754,1.158,0.516,0.930,0.865,��,8.8,�L
2017/06/21,19:10,0.935,1.473,0.981,1.759,1.161,0.516,0.931,0.864,��,11.4,�L
2017/06/21,19:20,0.936,1.473,0.981,1.757,1.163,0.515,0.933,0.866,��,11.7,�L
2017/06/21,19:30,0.937,1.477,0.983,1.762,1.164,0.517,0.933,0.866,��,10.2,�L
2017/06/21,19:40,0.938,1.480,0.982,1.765,1.167,0.516,0.933,0.866,��,9.2,�L
2017/06/21,19:50,0.940,1.483,0.986,1.765,1.169,0.519,0.935,0.867,��,9.8,�L
2017/06/21,20:00,0.941,1.484,0.986,1.770,1.171,0.518,0.935,0.869,��,10.7,�L
2017/06/21,20:10,0.942,1.487,0.986,1.774,1.174,0.516,0.936,0.868,��,10.5,�L
2017/06/21,20:20,0.943,1.490,0.987,1.776,1.176,0.517,0.937,0.869,��,10.0,�L
2017/06/21,20:30,0.946,1.490,0.989,1.778,1.177,0.518,0.936,0.871,��쐼,9.0,�L
2017/06/21,20:40,0.945,1.489,0.989,1.781,1.178,0.520,0.938,0.870,��,9.0,�L
2017/06/21,20:50,0.946,1.491,0.990,1.782,1.178,0.519,0.938,0.872,��,9.9,��
2017/06/21,21:00,0.947,1.494,0.990,1.782,1.180,0.519,0.939,0.872,��,11.9,��
2017/06/21,21:10,0.948,1.495,0.992,1.783,1.179,0.519,0.939,0.873,��쐼,9.3,��
2017/06/21,21:20,0.949,1.493,0.992,1.785,1.183,0.519,0.937,0.873,��쐼,7.1,��
2017/06/21,21:30,0.945,1.495,0.993,1.786,1.185,0.519,0.940,0.875,��쐼,5.3,��
2017/06/21,21:40,0.946,1.497,0.994,1.788,1.185,0.520,0.939,0.871,���k��,2.3,�L
2017/06/21,21:50,0.949,1.500,0.995,1.791,1.185,0.518,0.939,0.874,�k��,2.0,�L
2017/06/21,22:00,0.948,1.497,0.994,1.791,1.188,0.520,0.940,0.873,�k,1.5,��
2017/06/21,22:10,0.949,1.499,0.995,1.790,1.188,0.517,0.940,0.874,�k,2.6,��
2017/06/21,22:20,0.949,1.501,0.996,1.791,1.188,0.519,0.943,0.873,�k�k��,1.7,��
2017/06/21,22:30,0.951,1.503,0.998,1.795,1.190,0.520,0.941,0.874,�k�k��,1.9,��
2017/06/21,22:40,0.953,1.500,0.996,1.796,1.192,0.520,0.941,0.874,���k��,1.7,��
2017/06/21,22:50,0.953,1.501,0.995,1.795,1.196,0.521,0.940,0.874,�k��,0.6,��
2017/06/21,23:00,0.955,1.504,0.997,1.796,1.196,0.520,0.942,0.876,-,CALM,��
2017/06/21,23:10,0.954,1.502,0.997,1.795,1.200,0.522,0.940,0.878,��,1.5,��
2017/06/21,23:20,0.957,1.504,0.997,1.795,1.196,0.524,0.943,0.878,��,0.9,��
2017/06/21,23:30,0.955,1.504,0.996,1.797,1.199,0.521,0.943,0.880,��,1.9,��
2017/06/21,23:40,0.955,1.504,0.999,1.795,1.196,0.522,0.942,0.877,���쐼,2.6,��
2017/06/21,23:50,0.956,1.507,0.998,1.799,1.196,0.521,0.944,0.878,���k��,3.9,��
